Location: Girdwood
(60.9430°N, 149.1660°W)
Time: 21:27:07
(UTC-08:00)

Iridium 86 - Visible Passes

Search period start: 28 June 2016 00:00
Search period end: 08 July 2016 00:00
Orbit: 776 x 779 km, 86.4° (Epoch: 28 June)

Date Brightness Start Highest point End Pass type
(mag) Time Alt. Az. Time Alt. Az. Time Alt. Az.
03 Jul 7.2 02:18:22 10° N 02:22:58 30° ENE 02:27:33 10° SE visible
04 Jul 7.7 01:45:03 10° N 01:49:02 21° ENE 01:53:01 10° ESE visible
06 Jul 6.8 02:18:23 10° N 02:23:15 37° ENE 02:28:06 10° SE visible
07 Jul 7.3 01:45:01 10° N 01:49:24 26° ENE 01:53:45 10° ESE visible
